STARLINK-31968, 59927

Orbit data source: Space-Track

STARLINK-31968, 59927 is a payload satellite owned by SpaceX/Seattle (US) in LEO that was launched on Sat, 01 Jun 2024 UTC via an FALCON 9 launch vehicle from the Air Force Eastern Test Range (AFETR). Payload-class satellites include a variety of spacecraft equipped with specific instruments for various scientific and technological missions. These include communications satellites like Starlink; space stations such as the ISS; scientific satellites like the Hubble; Earth observation satellites from companies like Planet Labs, Umbra, and HawkEye 360; GPS; miniature CubeSats for education and research; and military/defense satellites.

Loading next visibility...
Identifier
59927, 2024-106F
Orbit
LEO
Country
Flag of USUS
Related business
Manufacturer
SpaceX/Seattle
Mission
Operational Commercial Communications
Bus & Motor
STARLINK V2M, Unknown motor
Mass
730 kg wet, ~700 kg dry
Launch date (UTC)
2024-06-01 (1 year ago)
Launch vehicle
FALCON 9
Launch site
Air Force Eastern Test Range (AFETR)
Object type
Payload
Rocket body
Debris
Shape & HBR
Box + 2 Pan, 17.7 m
Radar Cross Section
33.884 m², Large (>1 m²)

Expand to show TLE details & history
Last TLE update: 10 hours ago

TLE from 10 hours ago
0 STARLINK-31968
1 59927U 24106F   25308.72102666 -.00002282  00000-0 -73445-4 0  9996
2 59927  43.0019 318.0103 0000640 243.3440 116.7346 15.27573159 81469
Epoch: 2025-11-04T17:18Z
TLE epoch observation values (Epoch: 2025-11-04T17:18:16.703Z)
Latitude
-0.00003°
Longitude
14.23669°
Altitude
483.043 km
Speed
7.626 km/s
True Right ascension
21h 12m 02s
True Declination
0° 00' 00"
Sunlit
Object was in daylight at epoch
Visualization orbit readout
Latitude
Unknown
Longitude
Unknown
Altitude
Unknown
Speed
Unknown
Apparent Right ascension
Unknown
Apparent Declination
Unknown
Sunlit
N/A
Visualization observer readout
Local Sidereal Time
23:04:59
Azimuth
Unknown
Elevation
Unknown
Doppler factor
Unknown
Orbital elements
Apogee altitude
485.454 km
Perigee altitude
484.575 km
Semi-major axis
6,863.151 km
Eccentricity
0.00006
Inclination
43.0019°
RAAN
318.0103°
Arg. of periapsis
243.344°
True anomaly
116.74115°
Mean anomaly
116.7346°
Eccentric anomaly
116.73787°
Mean motion
3.81731 °/min
Orbital period
94.31 mins
BSTAR
-0.000073445
Loading maneuver chart data...
Computing Atmospheric mass density...
Loading historical data...
Loading historical data...
Loading historical data...
Loading historical data...
Loading historical data...
Loading historical data...
Loading historical data...

Documentation

Showing up to 5 results
|